SL-14 DEB, 45653

Orbit data source: Space-Track

SL-14 DEB, 45653 is space debris in LEO originally from a launch on Thu, 15 Aug 1991 UTC launched from the Plesetsk Missile And Space Complex (PKMTR). Debris objects in space refer to the collection of defunct objects orbiting the Earth. Examples of debris include non-operational satellites, rocket bodies, and fragments generated from explosions, collisions, or faulty payload assembly.

Loading next visibility...
SL-14 DEB details
Identifier
45653, 1991-056CX
Orbit
LEO
Last TLE update13 hours ago
Origin
Flag of CISRosgidromet (CIS)
ManufacturerUnknown
MissionSpacecraft
Bus & MotorUnknown
MassUnknown
Launch date (UTC)
1991-08-15 (33 years ago)
Launch vehicleUnknown
Launch site
Plesetsk Missile And Space Complex (PKMTR)
Object type
Payload
Rocket body
Debris
Shape & HBRUnknown
Radar Cross SectionSmall (<0.1 m²)

Expand to show TLE details & history

TLE from 13 hours ago
0 SL-14 DEB
1 45653U 91056CX  24346.40376011  .00002240  00000-0  43999-2 0  9999
2 45653  82.5565 137.6141 0074072 264.4254  94.8427 13.34336400229976
Epoch: 2024-12-11T09:41Z
Definitive object data (Epoch: 2024-12-11T09:41:24.873Z)
Latitude-0.00004°
Longitude-88.33848°
Altitude1,138.388 km
Speed7.281 km/s
True Right ascension09h 10m 27s
True Declination0° 00' 00"
Sunlit
Object was in daylight at TLE epoch
Visualization TLE readout
Latitude1.97719°
Longitude-88.46391°
Altitude1,141.362 km
Speed7.278 km/s
Apparent Right ascension08h 58m 51s
Apparent Declination-17° 06' 12"
Sunlit
Object is in daylight
Visualization observer readout
Local Sidereal Time20:41:50
Azimuth349.589° N
Elevation-66.89°
Doppler factor1
Orbital elements
Apogee altitude1,183.268 km
Perigee altitude1,072.074 km
Semi-major axis7,505.808 km
Eccentricity0.0074072
Inclination82.5565°
RAAN137.6141°
Arg. of periapsis264.4254°
True anomaly95.68778°
Mean anomaly94.8427°
Eccentric anomaly95.26531°
Mean motion3.3377 °/min
BSTAR0.0043999
Orbital period107.86 mins
Loading maneuver chart data...
Loading historical data...
Loading historical data...
Loading historical data...
Loading historical data...
Loading historical data...
Loading historical data...
Loading historical data...

SL-14 DEB Visibility forecast

Observer location: undefined°, undefined

Span
Click to sort rows by Start time (UTC) header in descending order
Start Az.
Max El. time (UTC)
Max El. Az.
Max El.
End time (UTC)
End Az.
12 mins2024-12-11 22:53:50.853Z338.205° N2024-12-11 22:59:50.853Z266.543° W36.385°2024-12-11 23:05:50.853Z200.593° SSW
5 mins2024-12-12 09:15:50.853Z93.684° ESE2024-12-12 09:17:50.853Z75.683° E13.645°2024-12-12 09:20:50.853Z50.493° ENE
12 mins2024-12-12 10:59:50.853Z184.805° SSW2024-12-12 11:04:50.853Z176.596° S44.718°2024-12-12 11:11:50.853Z7.961° NNE
6 mins2024-12-12 12:52:50.853Z275.5° WNW2024-12-12 12:54:50.853Z294.155° NW15.4°2024-12-12 12:58:50.853Z329.167° NNW
7 mins2024-12-12 20:30:50.853Z37.764° NE2024-12-12 20:33:50.853Z67.097° ENE17.647°2024-12-12 20:37:50.853Z103.941° ESE
|